Flag for U.S.A. Weather past 2 weeks in Aliso Viejo, California, U.S.A.

Now
63 °F

Broken clouds.


Feels Like: 63 °F
Forecast: 57 / 67 °F
Wind: 7 mph from Southwest

Location: John Wayne Airport-Orange County Airport

Current Time: Apr 25, 2015 at 12:50:42 PM

Latest Report: Apr 25, 2015 at 11:53 AM


Visibility: 10 mi

Pressure: 30.00 "Hg

Humidity: 60%

Dew point: 49 °F

Location of Aliso ViejoLocation

Historic Weather in Aliso Viejo — Graph

°F

Aliso Viejo temperature yesterday

Maximum temperature yesterday: 66 °F (at 2:53 PM)
Minimum temperature yesterday: 57 °F (at 5:53 AM)
Average temperature yesterday: 61 °F

Past Weeks' High & Low Weather Summary

 TemperatureHumidityPressure
High79 °F (Apr 17, 12:53 PM)94% (Apr 24, 9:58 AM)30.11 "Hg (Apr 24, 9:58 AM)
Low54 °F (Apr 11, 5:53 AM)6% (Apr 16, 10:53 AM)29.85 "Hg (Apr 20, 5:53 PM)
Average63 °F60%29.95 "Hg
* Reported Apr 10 10:53 AM — Apr 25 10:53 AM, Aliso Viejo, Weather by CustomWeather, © 2015

Note: Actual official high and low records may vary slightly from our data, if they occured in-between our weather recording intervals... More about our weather records

Advertising

Aliso Viejo weather history for previous 24 hours

 ConditionsComfort  
Time TempWeatherWind HumidityBarometerVisibility
10:53 AM
Sat, Apr 25
63 °FBroken clouds.8 mph65%30.00 "Hg10 mi
9:53 AM62 °FMostly cloudy.3 mph65%29.99 "Hg10 mi
8:53 AM61 °FMostly cloudy.No wind67%29.99 "Hg10 mi
8:00 AM61 °FMostly cloudy.3 mph68%29.99 "Hg10 mi
6:53 AM61 °FOvercast.3 mph67%29.98 "Hg10 mi
5:53 AM60 °FOvercast.No wind69%29.96 "Hg10 mi
4:53 AM60 °FOvercast.No wind69%29.98 "Hg10 mi
3:53 AM60 °FOvercast.No wind69%29.98 "Hg10 mi
2:53 AM60 °FOvercast.No wind69%29.98 "Hg10 mi
1:53 AM60 °FOvercast.3 mph72%29.99 "Hg10 mi
12:53 AM60 °FMostly cloudy.No wind72%29.99 "Hg10 mi
11:53 PM
Fri, Apr 24
60 °FPassing clouds.No wind69%30.00 "Hg10 mi
10:53 PM60 °FPartly cloudy.3 mph69%30.01 "Hg10 mi
9:53 PM61 °FMostly cloudy.3 mph70%30.02 "Hg10 mi
8:53 PM61 °FMostly cloudy.3 mph70%30.01 "Hg10 mi
7:53 PM61 °FCloudy.3 mph72%29.99 "Hg10 mi
6:53 PM61 °FBroken clouds.No wind72%29.99 "Hg9 mi
5:53 PM62 °FPartly sunny.7 mph70%29.99 "Hg10 mi
3:53 PM64 °FBroken clouds.8 mph58%29.98 "Hg10 mi
2:53 PM66 °FPartly sunny.12 mph52%29.99 "Hg10 mi
1:53 PM65 °FBroken clouds.8 mph61%30.00 "Hg10 mi
12:53 PM63 °FMostly cloudy.7 mph68%30.01 "Hg10 mi
Weather by CustomWeather, © 2015

See weather overviewHow to use our weather pages